[[{"header":{"parameterUnit":"m.s-1","parameterCategory":1,"la1":30.2991,"la2":30.254,"lo1":-89.0895,"lo2":-89.0444,"dy":0.0017,"dx":0.0017,"nx":28,"ny":28,"refTime":"2025-07-31T21:00:00:Z","depth":0,"parameterNumber":2,"parameterNumberName":"U-component_of_WINDS"},"data":[0,0,0,0,0,0,0,0,0,0,0,0,0,0,0,0,0,0,0,0,0,0,0,0,0,0,0,0,0,0,0,0,0,0,0,0,0,0,0,0,0,0,0,0,0,0,0,0,0,0,0,0,0,0,0,0,0,0,1.6198,1.6199,0,1.6287,1.6288,1.6289,1.6298,1.6297,1.6296,1.6295,1.639,1.6393,1.6396,0,0,0,0,0,0,0,0,0,0,0,0,0,1.6037,1.604,1.6198,1.6199,1.62,1.6287,1.6288,1.6289,1.6298,1.6297,1.6296,1.6295,1.6389,1.6393,1.6397,0,0,0,0,0,0,0,0,0,0,0,0,0,1.6115,1.6041,1.6197,1.6215,1.6217,1.6287,1.6288,1.629,1.6298,1.6297,1.6296,1.6294,1.6387,1.6392,1.6397,1.6457,0,0,1.6413,1.6415,0,0,0,0,0,0,0,0,1.6111,1.6121,1.6211,1.6214,1.6216,1.628,1.6266,1.6346,1.6299,1.6268,1.6295,1.6294,1.6355,1.6362,1.6382,1.6461,1.6465,1.6413,1.6416,1.6419,1.642,0,0,0,0,0,0,0,1.6105,1.6117,1.6233,1.6212,1.6216,1.6219,1.6228,1.6281,1.6318,1.627,1.6271,1.6281,1.6356,1.6377,1.6384,1.6467,1.6413,1.6418,1.6421,1.6423,1.6599,1.6601,0,0,0,0,0,0,1.6096,1.6113,1.623,1.6236,1.6159,1.6223,1.6233,1.6261,1.6317,1.6325,1.6282,1.6281,1.6369,1.6379,1.6388,1.6461,1.6418,1.6423,1.6426,1.6598,1.66,1.6601,0,0,0,0,0,0,1.6093,1.6107,1.6227,1.6174,1.619,1.6227,1.6258,1.6263,1.6285,1.6327,1.6333,1.6297,1.6369,1.6381,1.6439,1.6464,1.6426,1.643,1.6596,1.6598,1.6601,1.6608,0,0,0,0,0,0,1.6088,1.6105,1.6127,1.6175,1.6193,1.6276,1.626,1.6266,1.6293,1.6293,1.6342,1.6349,1.6368,1.6432,1.6444,1.6471,1.6434,1.6594,1.6597,1.66,1.6606,1.661,1.6614,0,0,0,0,0,1.6082,1.6127,1.6129,1.6143,1.6221,1.6277,1.6287,1.6307,1.6295,1.6318,1.6345,1.6348,1.646,1.6438,1.6452,1.648,1.6592,1.6596,1.66,1.6604,1.6609,1.6614,0,0,0,0,0,0,1.6082,1.6133,1.6136,1.6197,1.6232,1.6278,1.6308,1.6313,1.6354,1.6352,1.6376,1.6387,1.6445,1.6469,1.6443,1.6541,1.6525,1.6532,1.6523,1.6529,1.6533,1.6526,1.6438,0,0,0,0,0,1.6089,1.6129,1.6172,1.6222,1.6239,1.6271,1.6296,1.6308,1.6347,1.6362,1.6393,1.6431,1.6475,1.6503,1.6546,1.6609,1.6621,1.6636,1.664,1.6644,1.6649,1.6685,1.6692,1.6614,1.6614,1.6613,0,0,1.6104,1.6137,1.6161,1.6222,1.6252,1.6294,1.6283,1.6328,1.636,1.6369,1.6426,1.6451,1.6495,1.6556,1.6584,1.6578,1.6673,1.6648,1.6651,1.6655,1.6689,1.6697,1.6703,1.6616,1.6616,1.6615,0,0,1.6152,1.6181,1.6225,1.6255,1.6299,1.6319,1.633,1.6376,1.6392,1.6449,1.6457,1.6496,1.6571,1.6602,1.6627,1.6688,1.6692,1.6701,1.6724,1.6759,1.6765,1.677,1.6792,1.6799,1.6707,1.6707,1.6707,0,1.6165,1.6228,1.6248,1.6292,1.6319,1.6329,1.6375,1.6403,1.6459,1.6478,1.6469,1.6563,1.6593,1.6662,1.6677,1.6697,1.6711,1.6696,1.6762,1.6768,1.6773,1.6794,1.6802,1.6708,1.6708,1.6708,1.6707,0,1.6242,1.6285,1.6316,1.6369,1.64,1.6445,1.6472,1.6501,1.6511,1.6533,1.6592,1.6628,1.6679,1.6696,1.6707,1.6767,1.6761,1.6757,1.6741,1.6781,1.6801,1.681,1.6709,1.6709,1.6708,1.6708,0,0,1.6292,1.6355,1.6366,1.639,1.644,1.6474,1.652,1.6569,1.6593,1.6632,1.6671,1.6734,1.6731,1.676,1.6774,1.6804,1.685,1.6797,1.6798,1.6805,1.6919,1.6921,1.693,1.6853,1.6855,1.6856,1.6915,0,1.6345,1.6426,1.6445,1.6515,1.6556,1.6566,1.6606,1.6641,1.6663,1.6702,1.6726,1.677,1.6763,1.678,1.6811,1.6838,1.6873,1.6834,1.6891,1.6893,1.6879,1.694,1.6943,1.6997,1.6923,1.6924,1.6925,0,1.6418,1.6458,1.6531,1.6575,1.6593,1.6629,1.6675,1.6711,1.6752,1.6766,1.6798,1.681,1.6859,1.6841,1.6909,1.6882,1.6907,1.6924,1.6926,1.6932,1.6911,1.6948,1.7014,1.7022,1.6938,1.6937,1.6936,0,1.6447,1.6519,1.6572,1.6592,1.6646,1.667,1.6694,1.6733,1.6761,1.6802,1.682,1.6866,1.6892,1.6928,1.6952,1.6936,1.7018,1.7002,1.7031,1.7031,1.7048,1.7046,1.7119,1.7064,1.7064,1.7064,1.7064,0,1.6505,1.6549,1.6585,1.6618,1.6668,1.6691,1.674,1.6764,1.6799,1.6837,1.685,1.6885,1.6915,1.6955,1.6974,1.7028,1.7039,1.7052,1.7057,1.7051,1.7049,1.7067,1.7064,1.7066,1.7066,1.7065,1.7065,0,1.6545,1.6571,1.6629,1.6675,1.6688,1.6723,1.6762,1.6795,1.6817,1.6865,1.6878,1.6913,1.6961,1.6989,1.7049,1.7062,1.7122,1.7125,1.7108,1.711,1.7137,1.7134,1.7223,1.7236,1.7173,1.7174,1.7174,0,1.6579,1.6614,1.6663,1.6689,1.6713,1.6755,1.6783,1.6807,1.6836,1.6885,1.6912,1.6961,1.7,1.7077,1.7108,1.7155,1.7159,1.7187,1.7166,1.7159,1.7159,1.7156,1.716,1.719,1.7191,1.7191,1.7192,0,1.6638,1.6649,1.6689,1.6734,1.6767,1.6804,1.6841,1.6861,1.6892,1.6924,1.6973,1.7004,1.7065,1.7113,1.7162,1.7188,1.7195,1.7198,1.7207,1.7202,1.719,1.7196,1.7117,1.7196,1.7196,1.7195,1.7195,1.7195,1.6676,1.6707,1.6747,1.6791,1.6821,1.6855,1.6888,1.6914,1.6955,1.7006,1.7018,1.7069,1.711,1.7177,1.7203,1.7244,1.724,1.7253,1.7256,1.7259,1.726,1.7184,1.7254,1.7254,1.7254,1.7253,1.7253,0,1.6735,1.6761,1.6802,1.6852,1.6887,1.6891,1.6931,1.6961,1.7005,1.7042,1.7081,1.7137,1.7184,1.722,1.7268,1.7294,1.7298,1.7306,1.7304,1.7309,1.7262,1.7249,1.7301,1.7301,1.7301,1.7301,1.7301,1.7301,1.677,1.6822,1.6839,1.6906,1.6933,1.6982,1.7005,1.7037,1.7066,1.7128,1.7167,1.7189,1.7226,1.7277,1.7321,1.733,1.7347,1.7354,1.7363,1.7318,1.7313,1.7308,1.7296,1.7357,1.7357,1.7408,1.7408,1.7409]},{"header":{"parameterUnit":"m.s-1","parameterCategory":1,"la1":30.2991,"la2":30.254,"lo1":-89.0895,"lo2":-89.0444,"dy":0.0017,"dx":0.0017,"nx":28,"ny":28,"refTime":"2025-07-31T21:00:00:Z","depth":0,"parameterNumber":3,"parameterNumberName":"V-component_of_WINDS"},"data":[0,0,0,0,0,0,0,0,0,0,0,0,0,0,0,0,0,0,0,0,0,0,0,0,0,0,0,0,0,0,0,0,0,0,0,0,0,0,0,0,0,0,0,0,0,0,0,0,0,0,0,0,0,0,0,0,0,0,2.2748,2.2748,0,2.275,2.275,2.275,2.2746,2.2746,2.2746,2.2746,2.2744,2.2744,2.2745,0,0,0,0,0,0,0,0,0,0,0,0,0,2.2737,2.2737,2.2748,2.2748,2.2748,2.275,2.275,2.275,2.2746,2.2746,2.2746,2.2746,2.2744,2.2744,2.2745,0,0,0,0,0,0,0,0,0,0,0,0,0,2.274,2.2737,2.2748,2.2747,2.2747,2.275,2.275,2.275,2.2746,2.2746,2.2746,2.2746,2.2744,2.2744,2.2745,2.2748,0,0,2.2745,2.2745,0,0,0,0,0,0,0,0,2.274,2.2741,2.2747,2.2747,2.2747,2.2748,2.2745,2.2749,2.2746,2.2746,2.2746,2.2746,2.2745,2.2745,2.2746,2.2748,2.2748,2.2745,2.2745,2.2745,2.2745,0,0,0,0,0,0,0,2.274,2.2741,2.2749,2.2747,2.2747,2.2744,2.2745,2.2746,2.2747,2.2746,2.2746,2.2747,2.2745,2.2746,2.2746,2.2748,2.2745,2.2745,2.2745,2.2745,2.275,2.275,0,0,0,0,0,0,2.274,2.2741,2.2749,2.2749,2.2743,2.2745,2.2745,2.2748,2.2747,2.2746,2.2747,2.2746,2.2746,2.2746,2.2746,2.2748,2.2745,2.2745,2.2745,2.275,2.275,2.275,0,0,0,0,0,0,2.274,2.2741,2.2749,2.2745,2.2745,2.2745,2.2748,2.2748,2.2748,2.2747,2.2747,2.2748,2.2746,2.2746,2.2747,2.2748,2.2745,2.2745,2.275,2.275,2.275,2.2754,0,0,0,0,0,0,2.274,2.2741,2.2744,2.2745,2.2746,2.2752,2.2748,2.2748,2.2749,2.2749,2.2748,2.2747,2.2746,2.2747,2.2747,2.2748,2.2745,2.2749,2.275,2.275,2.2754,2.2754,2.2755,0,0,0,0,0,2.274,2.2745,2.2744,2.2745,2.275,2.2752,2.2752,2.2751,2.2749,2.2751,2.2749,2.2747,2.2748,2.2747,2.2747,2.2748,2.2749,2.275,2.275,2.2754,2.2754,2.2755,0,0,0,0,0,0,2.2745,2.2746,2.2744,2.2751,2.2751,2.2751,2.2754,2.2752,2.2752,2.2752,2.2749,2.2749,2.275,2.2749,2.2749,2.275,2.2748,2.2748,2.2751,2.2751,2.2752,2.2752,2.2745,0,0,0,0,0,2.2746,2.275,2.275,2.2755,2.2756,2.2754,2.2756,2.2754,2.2754,2.2754,2.2753,2.2752,2.2751,2.2751,2.2751,2.2753,2.2752,2.2754,2.2754,2.2755,2.2755,2.2753,2.2753,2.275,2.275,2.275,0,0,2.275,2.2751,2.2753,2.2756,2.2756,2.2758,2.2755,2.2757,2.2758,2.2754,2.2755,2.2754,2.2752,2.2753,2.2754,2.2753,2.2755,2.2755,2.2755,2.2755,2.2753,2.2753,2.2753,2.275,2.275,2.275,0,0,2.2758,2.276,2.2763,2.2763,2.2764,2.2762,2.2763,2.2763,2.2762,2.2763,2.276,2.2759,2.2759,2.2758,2.2757,2.276,2.2757,2.276,2.2762,2.276,2.276,2.2761,2.276,2.276,2.276,2.276,2.276,0,2.2762,2.2766,2.2765,2.2767,2.2767,2.2764,2.2767,2.2766,2.2766,2.2765,2.2764,2.2762,2.2761,2.276,2.2761,2.2761,2.276,2.276,2.2761,2.2761,2.2761,2.276,2.276,2.276,2.276,2.276,2.276,0,2.277,2.2773,2.2775,2.2775,2.2775,2.2778,2.2775,2.2775,2.2773,2.2771,2.277,2.2768,2.2767,2.2766,2.2765,2.2764,2.2763,2.2762,2.2759,2.2761,2.2761,2.276,2.276,2.276,2.276,2.276,0,0,2.2783,2.2781,2.2781,2.278,2.2779,2.278,2.278,2.2779,2.2778,2.2777,2.2776,2.2774,2.2772,2.2771,2.2768,2.2767,2.2767,2.2765,2.2765,2.2764,2.2764,2.2765,2.2764,2.2765,2.2765,2.2765,2.2763,0,2.2789,2.2791,2.2789,2.2791,2.2791,2.2787,2.2787,2.2785,2.2782,2.2781,2.2777,2.2776,2.2774,2.2773,2.2771,2.2767,2.2767,2.2767,2.2762,2.2762,2.2762,2.2764,2.2766,2.2765,2.2763,2.2763,2.2763,0,2.2797,2.2796,2.2798,2.2794,2.2794,2.2795,2.2792,2.2791,2.2787,2.2785,2.2783,2.278,2.2777,2.2775,2.277,2.2771,2.2768,2.2765,2.2765,2.2764,2.2762,2.2762,2.2765,2.2764,2.2763,2.2763,2.2763,0,2.2804,2.2803,2.2804,2.2803,2.2799,2.2799,2.2797,2.2793,2.2791,2.2788,2.2786,2.2783,2.278,2.2776,2.2771,2.2771,2.2766,2.2764,2.2763,2.2763,2.2762,2.2762,2.2763,2.2762,2.2762,2.2762,2.2762,0,2.281,2.2811,2.2806,2.2806,2.2806,2.2802,2.2802,2.2799,2.2795,2.2793,2.2789,2.2787,2.278,2.2777,2.2772,2.2768,2.2767,2.2764,2.2762,2.2764,2.2764,2.2762,2.2761,2.2762,2.2762,2.2762,2.2762,0,2.2818,2.2815,2.2815,2.281,2.2809,2.2809,2.2804,2.2803,2.2799,2.2796,2.2795,2.279,2.2785,2.2779,2.2772,2.2769,2.2764,2.2763,2.2766,2.2765,2.2763,2.2763,2.2762,2.2761,2.2761,2.2761,2.2761,0,2.2822,2.2823,2.2818,2.2816,2.2815,2.2813,2.2811,2.2806,2.2804,2.2798,2.2797,2.2792,2.2787,2.2779,2.2773,2.2767,2.2765,2.2765,2.2764,2.2764,2.2763,2.2763,2.2762,2.2765,2.2765,2.2765,2.2765,0,2.2829,2.2827,2.2825,2.2822,2.2819,2.2816,2.2813,2.2812,2.2806,2.2803,2.2798,2.2795,2.2787,2.2781,2.2774,2.277,2.2766,2.2765,2.2764,2.2765,2.2766,2.2764,2.2766,2.2765,2.2765,2.2765,2.2765,2.2765,2.2834,2.2833,2.2829,2.2826,2.2823,2.282,2.2817,2.2813,2.281,2.2804,2.28,2.2795,2.2788,2.2778,2.2774,2.2768,2.2767,2.2766,2.2766,2.2765,2.2765,2.2768,2.2767,2.2767,2.2767,2.2767,2.2767,0,2.284,2.2836,2.2834,2.2829,2.2826,2.2823,2.2818,2.2815,2.2811,2.2806,2.2801,2.2794,2.2787,2.278,2.2773,2.2769,2.2767,2.2767,2.2767,2.2766,2.2767,2.2768,2.2769,2.2769,2.2769,2.2769,2.2769,2.2769,2.2842,2.284,2.2837,2.2832,2.2828,2.2824,2.2821,2.2816,2.2812,2.2805,2.2799,2.2795,2.2788,2.2779,2.2772,2.277,2.2767,2.2768,2.2765,2.2766,2.2766,2.2766,2.2767,2.2767,2.2767,2.2764,2.2763,2.2763]}]]